TimeCDT,TemperatureF,Dew PointF,Humidity,Sea Level PressureIn,VisibilityMPH,Wind Direction,Wind SpeedMPH,Gust SpeedMPH,PrecipitationIn,Events,Conditions,WindDirDegrees,DateUTC
12:15 AM,53.6,39.2,58,30.24,10.0,East,3.5,-,N/A,,Partly Cloudy,80,2014-04-18 05:15:00
12:35 AM,53.6,39.2,58,30.25,10.0,Calm,Calm,-,N/A,,Clear,0,2014-04-18 05:35:00
12:55 AM,53.6,39.2,58,30.25,10.0,Calm,Calm,-,N/A,,Clear,0,2014-04-18 05:55:00
1:15 AM,51.8,39.2,62,30.25,10.0,ENE,4.6,-,N/A,,Scattered Clouds,70,2014-04-18 06:15:00
1:35 AM,51.8,39.2,62,30.24,10.0,ENE,4.6,-,N/A,,Mostly Cloudy,70,2014-04-18 06:35:00
1:55 AM,53.6,39.2,58,30.25,10.0,Calm,Calm,-,N/A,,Mostly Cloudy,0,2014-04-18 06:55:00
2:15 AM,53.6,39.2,58,30.24,10.0,ENE,4.6,-,N/A,,Mostly Cloudy,70,2014-04-18 07:15:00
2:35 AM,51.8,39.2,62,30.24,10.0,ENE,3.5,-,N/A,,Scattered Clouds,70,2014-04-18 07:35:00
2:55 AM,51.8,41.0,67,30.24,10.0,ENE,4.6,-,N/A,,Mostly Cloudy,60,2014-04-18 07:55:00
3:15 AM,53.6,41.0,62,30.24,10.0,ENE,5.8,-,N/A,,Overcast,60,2014-04-18 08:15:00
3:35 AM,51.8,41.0,67,30.25,10.0,Calm,Calm,-,N/A,,Mostly Cloudy,0,2014-04-18 08:35:00
3:55 AM,53.6,41.0,62,30.25,10.0,NNW,3.5,-,N/A,,Overcast,340,2014-04-18 08:55:00
4:15 AM,53.6,41.0,62,30.25,10.0,Calm,Calm,-,N/A,,Overcast,0,2014-04-18 09:15:00
4:35 AM,53.6,41.0,62,30.24,10.0,NNW,3.5,-,N/A,,Overcast,340,2014-04-18 09:35:00
4:55 AM,53.6,39.2,58,30.24,10.0,NE,4.6,-,N/A,,Mostly Cloudy,50,2014-04-18 09:55:00
5:15 AM,53.6,39.2,58,30.24,10.0,ENE,5.8,-,N/A,,Overcast,70,2014-04-18 10:15:00
5:35 AM,55.4,39.2,54,30.24,4.0,East,4.6,-,N/A,,Overcast,80,2014-04-18 10:35:00
5:55 AM,53.6,39.2,58,30.24,10.0,East,5.8,-,N/A,,Mostly Cloudy,80,2014-04-18 10:55:00
6:15 AM,53.6,37.4,54,30.24,10.0,East,4.6,-,N/A,,Partly Cloudy,80,2014-04-18 11:15:00
6:35 AM,51.8,37.4,58,30.24,10.0,East,3.5,-,N/A,,Clear,80,2014-04-18 11:35:00
6:55 AM,51.8,39.2,62,30.25,9.0,NNE,3.5,-,N/A,,Clear,20,2014-04-18 11:55:00
7:15 AM,51.8,39.2,62,30.26,10.0,Calm,Calm,-,N/A,,Clear,0,2014-04-18 12:15:00
7:35 AM,55.4,41.0,58,30.26,10.0,Calm,Calm,-,N/A,,Clear,0,2014-04-18 12:35:00
7:55 AM,55.4,39.2,54,30.27,10.0,NE,4.6,-,N/A,,Clear,50,2014-04-18 12:55:00
8:15 AM,55.4,41.0,58,30.27,8.0,North,3.5,-,N/A,,Partly Cloudy,350,2014-04-18 13:15:00
8:35 AM,57.2,41.0,55,30.27,10.0,Calm,Calm,-,N/A,,Mostly Cloudy,0,2014-04-18 13:35:00
8:55 AM,57.2,41.0,55,30.28,10.0,NNE,3.5,-,N/A,,Overcast,20,2014-04-18 13:55:00
9:15 AM,59.0,41.0,51,30.28,10.0,NE,4.6,-,N/A,,Overcast,40,2014-04-18 14:15:00
9:35 AM,60.8,42.8,52,30.28,10.0,ENE,4.6,-,N/A,,Mostly Cloudy,70,2014-04-18 14:35:00
9:55 AM,60.8,42.8,52,30.28,10.0,NE,3.5,-,N/A,,Mostly Cloudy,50,2014-04-18 14:55:00
10:15 AM,62.6,42.8,48,30.29,10.0,Calm,Calm,-,N/A,,Scattered Clouds,0,2014-04-18 15:15:00
10:35 AM,62.6,44.6,52,30.29,10.0,ENE,3.5,-,N/A,,Mostly Cloudy,60,2014-04-18 15:35:00
10:55 AM,62.6,44.6,52,30.29,10.0,Calm,Calm,-,N/A,,Overcast,0,2014-04-18 15:55:00
11:15 AM,66.2,46.4,49,30.29,10.0,Calm,Calm,-,N/A,,Overcast,0,2014-04-18 16:15:00
11:35 AM,66.2,46.4,49,30.29,10.0,Calm,Calm,-,N/A,,Scattered Clouds,0,2014-04-18 16:35:00
11:55 AM,66.2,46.4,49,30.28,10.0,Calm,Calm,-,N/A,,Clear,0,2014-04-18 16:55:00
12:15 PM,68.0,46.4,46,30.27,10.0,Calm,Calm,-,N/A,,Clear,0,2014-04-18 17:15:00
12:35 PM,68.0,46.4,46,30.27,10.0,NE,5.8,-,N/A,,Scattered Clouds,50,2014-04-18 17:35:00
12:55 PM,69.8,46.4,43,30.26,10.0,Calm,Calm,-,N/A,,Mostly Cloudy,0,2014-04-18 17:55:00
1:15 PM,68.0,46.4,46,30.26,10.0,SSE,3.5,-,N/A,,Overcast,150,2014-04-18 18:15:00
1:35 PM,69.8,46.4,43,30.25,10.0,East,4.6,-,N/A,,Overcast,100,2014-04-18 18:35:00
1:55 PM,69.8,46.4,43,30.25,10.0,Calm,Calm,-,N/A,,Overcast,0,2014-04-18 18:55:00
2:15 PM,69.8,46.4,43,30.24,10.0,WNW,3.5,-,N/A,,Overcast,290,2014-04-18 19:15:00
2:35 PM,69.8,46.4,43,30.22,10.0,North,4.6,-,N/A,,Overcast,360,2014-04-18 19:35:00
2:55 PM,71.6,46.4,41,30.22,10.0,NE,9.2,-,N/A,,Mostly Cloudy,50,2014-04-18 19:55:00
3:15 PM,71.6,46.4,41,30.21,10.0,NNE,9.2,-,N/A,,Partly Cloudy,30,2014-04-18 20:15:00
3:35 PM,69.8,46.4,43,30.20,10.0,East,8.1,-,N/A,,Partly Cloudy,80,2014-04-18 20:35:00
3:55 PM,69.8,46.4,43,30.19,10.0,NE,9.2,-,N/A,,Partly Cloudy,40,2014-04-18 20:55:00
4:15 PM,69.8,46.4,43,30.19,10.0,NE,6.9,-,N/A,,Clear,40,2014-04-18 21:15:00
4:35 PM,69.8,46.4,43,30.18,10.0,NE,5.8,-,N/A,,Clear,50,2014-04-18 21:35:00
4:55 PM,69.8,46.4,43,30.18,10.0,ENE,6.9,-,N/A,,Clear,70,2014-04-18 21:55:00
5:15 PM,69.8,46.4,43,30.18,10.0,ENE,9.2,16.1,N/A,,Scattered Clouds,60,2014-04-18 22:15:00
5:35 PM,69.8,46.4,43,30.19,10.0,ENE,8.1,-,N/A,,Mostly Cloudy,60,2014-04-18 22:35:00
5:55 PM,69.8,46.4,43,30.18,10.0,ENE,5.8,-,N/A,,Mostly Cloudy,60,2014-04-18 22:55:00
6:15 PM,69.8,44.6,40,30.18,10.0,ENE,8.1,-,N/A,,Overcast,70,2014-04-18 23:15:00
6:35 PM,69.8,44.6,40,30.18,10.0,ENE,6.9,-,N/A,,Overcast,60,2014-04-18 23:35:00
6:55 PM,68.0,44.6,43,30.18,10.0,ENE,4.6,-,N/A,,Overcast,70,2014-04-18 23:55:00
7:15 PM,66.2,44.6,46,30.18,10.0,ENE,3.5,-,N/A,,Mostly Cloudy,70,2014-04-19 00:15:00
7:35 PM,64.4,44.6,49,30.18,10.0,Calm,Calm,-,N/A,,Mostly Cloudy,0,2014-04-19 00:35:00
7:55 PM,64.4,44.6,49,30.18,10.0,Calm,Calm,-,N/A,,Overcast,0,2014-04-19 00:55:00
8:15 PM,64.4,44.6,49,30.19,9.0,Calm,Calm,-,N/A,,Overcast,0,2014-04-19 01:15:00
8:35 PM,64.4,44.6,49,30.19,10.0,Calm,Calm,-,N/A,,Mostly Cloudy,0,2014-04-19 01:35:00
8:55 PM,62.6,44.6,52,30.19,10.0,Calm,Calm,-,N/A,,Partly Cloudy,0,2014-04-19 01:55:00
9:15 PM,60.8,44.6,55,30.20,10.0,Calm,Calm,-,N/A,,Clear,0,2014-04-19 02:15:00
9:35 PM,59.0,44.6,59,30.20,10.0,Calm,Calm,-,N/A,,Clear,0,2014-04-19 02:35:00
9:55 PM,59.0,44.6,59,30.20,10.0,Calm,Calm,-,N/A,,Clear,0,2014-04-19 02:55:00
10:15 PM,59.0,44.6,59,30.20,10.0,Calm,Calm,-,N/A,,Clear,0,2014-04-19 03:15:00
10:35 PM,59.0,44.6,59,30.20,10.0,Calm,Calm,-,N/A,,Clear,0,2014-04-19 03:35:00
10:55 PM,57.2,44.6,63,30.20,10.0,Calm,Calm,-,N/A,,Clear,0,2014-04-19 03:55:00
11:15 PM,57.2,44.6,63,30.21,10.0,Calm,Calm,-,N/A,,Partly Cloudy,0,2014-04-19 04:15:00
11:35 PM,55.4,44.6,67,30.21,10.0,Calm,Calm,-,N/A,,Partly Cloudy,0,2014-04-19 04:35:00
11:55 PM,55.4,44.6,67,30.21,10.0,Calm,Calm,-,N/A,,Mostly Cloudy,0,2014-04-19 04:55:00